GFSSGP_925_spd_159.txt.gz
Wind_Speed
26 22 15 3 4 5 2 4 5 4 3 1 4 13 10 4 4 4 8 9 14 12 11 10 10 9 8 7 7 8 8 9 8 8 7 9 9 9 9 9 8 9 8 8 7 7 7 7 5
29 20 4 2 4 4 1 4 9 6 4 5 11 6 6 4 3 8 7 9 9 7 9 8 9 8 7 7 6 6 7 7 7 7 7 7 7 7 8 9 11 8 8 8 8 7 5 3 3
28 12 3 3 3 5 5 4 8 3 5 3 4 5 4 2 4 4 10 11 10 8 7 6 6 8 7 7 5 5 5 5 6 6 7 7 6 5 5 6 6 5 5 4 5 4 6 5 7
13 8 4 4 3 6 9 8 8 6 3 5 7 8 4 6 3 9 11 12 12 10 8 7 5 8 7 6 5 5 4 3 4 6 7 8 7 5 4 3 4 3 3 3 1 2 4 6 4
6 3 3 4 4 3 4 8 8 6 5 5 5 3 4 5 11 11 12 12 13 11 6 4 7 7 7 6 4 3 3 3 3 6 8 9 6 6 4 3 2 2 2 2 3 2 1 3 2
5 3 3 3 4 5 3 3 5 5 5 6 6 5 3 12 13 13 11 11 10 11 8 3 6 7 8 7 5 4 4 3 3 7 8 7 5 7 6 5 3 1 3 3 4 3 3 4 5
3 3 3 1 4 3 5 3 3 7 7 1 6 5 4 7 10 11 11 11 10 11 8 7 4 7 7 8 7 6 6 5 5 7 9 8 8 7 6 8 6 5 5 5 6 5 5 5 6
3 3 4 0 6 4 6 3 6 7 1 2 6 5 5 7 12 12 10 9 10 8 7 8 8 7 5 4 6 7 7 7 6 6 9 11 9 9 8 9 9 7 7 6 8 8 7 7 8
4 4 2 4 7 5 6 5 2 3 5 3 3 5 13 18 17 15 14 13 13 13 10 12 12 10 8 8 7 7 8 9 9 9 9 10 12 11 9 8 9 12 12 11 10 9 10 11 12
4 3 5 2 1 7 5 6 6 4 4 3 5 9 19 20 18 17 14 16 16 17 16 13 14 14 9 9 10 10 10 9 10 11 11 10 9 11 12 13 13 11 13 14 15 14 14 14 15
1 4 3 4 5 3 6 4 1 7 3 5 10 9 8 11 10 9 8 7 18 20 18 18 17 14 12 11 11 11 11 11 11 10 9 9 8 7 11 13 12 14 15 16 17 18 18 16 15
1 2 3 2 5 4 3 3 4 4 5 5 8 7 6 4 1 2 2 0 1 2 2 8 19 17 16 15 14 13 13 13 13 14 13 13 13 13 13 14 15 14 14 15 14 15 15 17 17
2 3 5 3 7 5 4 3 1 3 4 3 5 7 6 2 5 4 2 2 4 7 6 4 7 20 15 17 17 15 15 15 15 14 14 15 16 17 16 17 16 16 15 16 16 16 17 17 18
2 4 3 3 3 3 3 4 5 4 6 6 2 5 3 4 9 7 6 6 7 7 5 3 5 6 17 14 17 19 19 16 15 17 17 17 18 18 18 18 17 16 17 16 17 18 19 20 20
3 3 5 1 2 2 5 6 8 8 7 7 5 3 4 8 12 9 12 13 11 5 3 3 2 4 6 12 13 16 19 17 17 17 16 18 18 16 20 20 19 18 18 18 18 18 18 19 20
3 3 1 4 8 3 8 7 6 10 10 10 7 6 6 7 7 9 11 4 12 9 7 3 4 0 4 7 10 12 15 18 19 18 17 15 16 17 20 19 21 19 18 17 19 20 21 22 23
0 3 5 4 7 5 5 5 5 4 5 7 6 6 6 5 7 10 16 15 12 8 3 2 5 7 7 8 8 11 12 10 13 17 16 16 15 15 17 18 18 15 16 20 20 19 19 21 22
5 4 4 6 5 4 4 8 9 7 6 8 7 8 8 6 4 15 16 13 10 8 5 5 7 9 10 9 10 9 10 8 5 10 11 9 10 11 12 14 15 16 16 17 15 16 16 18 19
4 1 5 2 1 2 5 7 9 11 7 9 9 8 7 7 14 17 18 15 11 11 9 10 9 10 10 6 3 2 3 2 4 4 7 6 4 3 2 2 5 8 10 11 12 14 16 17 17
2 1 2 2 5 3 6 12 12 13 12 10 11 9 8 6 7 12 18 18 18 15 13 12 10 10 9 6 1 4 9 12 13 15 14 11 8 6 4 4 5 5 4 5 7 9 10 13 13
3 4 2 1 3 2 3 9 5 7 16 13 7 5 2 14 11 7 15 18 17 16 14 12 11 10 10 7 6 12 13 16 17 15 14 12 10 9 7 6 6 6 6 7 7 9 10 8 7
2 4 4 1 3 3 4 5 6 5 4 6 7 8 10 11 8 8 14 17 13 12 10 11 12 12 12 10 12 11 15 16 16 17 13 12 11 10 9 9 8 8 7 7 8 8 9 9 9
3 1 7 3 2 3 3 2 7 5 6 5 7 9 8 8 9 8 14 14 11 10 11 11 12 13 13 13 14 15 17 16 14 13 11 10 10 11 11 11 11 11 11 11 11 11 11 12 10
4 3 4 3 3 2 9 7 5 3 5 4 6 7 9 9 9 12 15 13 11 9 9 10 12 14 13 13 13 14 13 12 11 10 10 10 10 12 13 11 11 11 12 13 13 12 13 14 12
5 4 2 1 2 5 2 4 7 4 3 7 10 8 8 8 8 8 10 10 9 8 7 8 10 14 12 13 13 13 13 13 13 11 11 10 11 13 13 12 13 13 13 13 12 13 15 17 17
7 6 4 6 4 3 1 5 5 5 2 7 9 10 9 9 7 7 11 11 9 7 7 8 9 11 10 10 11 11 10 11 11 10 10 11 11 12 11 12 13 14 13 13 14 15 16 16 17
6 9 3 3 1 2 4 5 7 6 5 7 12 9 8 8 8 8 12 12 10 7 7 8 9 9 7 8 8 10 10 10 10 10 9 11 10 10 12 13 15 15 15 15 16 18 19 18 18
3 4 1 2 3 4 4 3 5 6 6 6 7 7 7 6 7 7 11 13 9 8 8 7 7 8 7 7 7 9 9 8 8 9 10 10 11 11 12 14 15 15 16 16 17 18 18 19 19
4 3 4 3 3 4 0 4 4 4 6 8 7 8 8 8 8 8 14 15 14 11 9 8 7 7 7 7 7 8 8 8 8 10 10 11 11 13 14 15 15 16 18 18 18 17 18 20 17
6 4 4 3 3 3 3 5 6 6 7 8 7 7 7 8 9 8 17 20 18 15 13 11 9 8 7 6 7 8 8 8 9 10 11 11 13 14 15 15 14 17 19 20 20 19 19 19 18

GFSSGP_925_spd_162.txt.gz
Wind_Speed
29 21 6 3 4 5 2 2 2 3 3 2 3 10 7 5 2 3 6 12 15 14 14 12 11 10 9 8 8 9 10 9 9 8 10 10 9 8 8 8 9 10 9 9 8 8 6 6 7
29 13 3 2 5 4 2 2 6 3 6 10 8 5 5 3 2 5 9 16 12 13 13 12 10 9 9 7 7 7 8 9 8 8 8 8 8 8 8 10 10 8 9 9 7 5 3 4 5
17 6 3 4 4 5 6 5 7 5 10 5 5 5 4 3 3 10 9 16 14 13 12 9 9 10 9 7 7 7 7 7 8 7 7 8 7 6 7 7 6 8 6 4 3 3 5 6 6
9 6 4 4 2 1 8 7 5 6 3 7 6 6 3 1 7 10 14 17 14 13 11 10 8 10 9 8 7 7 6 5 8 8 8 8 6 8 5 5 3 3 2 3 1 3 6 7 5
5 3 4 3 2 2 2 5 7 5 4 4 2 4 3 2 11 14 16 16 14 14 11 9 9 10 9 9 7 6 6 5 6 7 10 8 8 8 6 4 3 2 1 3 0 3 5 5 4
4 3 4 2 2 2 2 7 7 4 3 4 5 5 2 9 13 14 15 15 13 12 11 9 9 9 9 9 7 6 6 5 5 8 10 9 7 7 6 6 4 2 2 3 3 2 3 5 7
5 4 5 3 6 1 4 4 7 8 7 3 9 4 1 4 13 14 12 16 14 12 12 9 8 9 9 9 8 7 7 6 6 9 9 9 8 7 7 8 7 6 5 5 5 5 5 6 6
4 3 5 3 6 5 3 3 3 4 4 4 7 6 5 9 16 14 14 15 16 14 10 11 9 8 9 8 9 8 8 8 7 7 9 10 9 9 8 9 10 9 8 7 7 8 8 8 8
3 4 2 5 7 5 3 5 0 2 6 3 1 6 7 20 17 16 16 14 17 15 13 13 12 11 9 7 7 6 7 8 9 9 9 10 11 11 10 10 9 11 12 11 11 11 10 10 11
4 3 5 2 2 6 5 5 7 4 4 4 4 5 19 19 18 17 15 18 19 19 18 15 14 14 12 10 9 10 9 9 9 10 10 10 10 11 14 12 12 11 12 13 14 14 14 14 15
3 4 2 2 4 5 8 5 3 10 2 6 10 9 9 12 16 17 18 18 22 22 20 19 17 17 16 13 13 12 11 11 10 9 9 8 8 7 10 12 12 12 14 15 15 15 17 17 18
2 3 1 3 6 3 3 4 4 4 5 4 11 9 8 8 12 14 13 11 9 15 15 22 20 19 18 15 17 14 12 12 12 12 12 12 12 12 13 14 13 13 13 14 14 15 14 15 15
3 1 2 1 5 4 3 4 1 4 5 7 10 10 9 8 6 4 6 5 6 7 5 8 9 22 21 20 18 18 16 15 14 12 13 13 14 15 15 16 15 15 15 15 15 15 15 16 16
2 2 0 1 3 5 3 2 4 3 4 5 7 7 7 7 8 5 7 9 9 9 8 5 2 6 22 21 19 19 19 18 16 15 14 14 15 16 17 18 17 17 16 16 16 16 16 17 17
2 3 4 1 2 1 3 7 6 6 3 3 6 7 6 5 4 8 14 10 5 6 9 7 5 4 7 19 20 20 21 20 18 17 16 14 15 16 18 18 19 18 17 18 18 18 19 19 20
3 5 1 3 4 2 4 8 4 8 5 10 6 6 5 4 4 4 5 8 12 11 10 8 6 6 5 6 9 11 14 19 22 19 16 16 16 15 16 18 19 17 19 18 17 18 20 22 22
3 3 5 6 7 4 4 6 5 3 1 8 7 7 6 4 6 10 13 13 11 9 6 2 1 3 6 9 9 7 8 8 10 16 17 15 15 16 14 15 15 15 16 14 15 17 18 19 20
5 3 4 5 4 4 4 9 8 8 5 7 7 7 7 6 4 10 12 10 8 6 3 2 5 7 9 10 9 8 5 4 5 5 8 10 11 12 12 13 12 13 12 13 13 15 14 16 18
5 3 4 3 3 5 6 7 10 11 7 8 9 8 7 3 8 12 11 8 7 7 7 7 7 8 9 6 2 2 3 8 9 8 5 4 3 3 4 3 3 6 6 5 9 11 12 15 13
0 1 3 1 1 2 4 10 11 10 10 11 13 9 8 7 5 9 11 11 12 11 10 10 10 9 8 5 1 3 9 13 12 11 11 9 7 4 3 3 4 4 3 3 2 3 3 3 4
4 5 2 1 2 2 4 8 5 6 11 9 7 7 6 14 10 6 10 11 10 11 12 12 11 9 8 5 7 14 16 14 13 11 11 9 7 5 4 4 4 2 2 4 4 4 4 4 3
6 6 5 3 3 3 3 5 5 5 6 2 6 6 9 11 8 7 10 10 10 10 11 11 10 10 9 7 8 9 11 11 11 11 10 9 8 7 5 4 4 3 4 3 4 4 4 1 4
4 4 6 4 2 3 1 1 7 3 6 3 5 7 8 8 8 7 10 11 10 9 11 9 8 9 9 9 9 11 13 13 11 9 8 8 8 7 7 6 6 6 7 7 6 6 6 7 6
5 5 5 4 3 3 8 7 5 3 4 3 4 5 7 8 7 8 11 10 10 8 7 7 8 9 8 9 10 9 10 10 9 7 7 7 8 8 8 7 7 8 8 8 8 8 9 10 10
3 5 2 3 1 6 1 4 6 6 3 7 12 9 8 7 7 6 8 7 8 6 5 5 5 8 7 8 10 10 10 10 10 9 9 8 8 9 10 8 8 9 9 9 8 9 10 11 13
7 5 5 7 5 3 2 6 5 5 3 1 5 8 8 6 6 6 8 8 8 7 6 5 4 5 6 7 9 9 9 9 10 9 8 8 9 9 8 9 10 11 10 10 9 11 13 12 13
5 5 5 4 3 2 4 5 8 2 5 5 7 7 5 6 7 7 10 11 11 10 9 8 7 5 5 6 8 8 8 8 9 8 8 8 8 9 10 10 12 12 11 11 11 14 14 14 14
5 7 2 2 2 4 3 3 4 2 4 3 6 7 8 6 6 7 13 15 13 11 10 10 9 8 7 6 6 7 7 7 7 7 8 9 10 11 11 12 12 12 12 12 13 14 14 14 13
4 3 3 4 4 3 1 4 5 2 3 8 8 8 8 9 9 7 13 14 13 13 13 12 12 10 9 8 8 7 7 7 7 8 9 10 11 12 11 12 13 14 14 13 13 13 13 14 13
3 5 6 4 4 3 3 4 1 0 4 7 8 6 5 6 8 7 14 17 17 18 17 15 13 12 10 10 9 9 8 8 7 8 9 10 12 11 12 13 14 15 15 15 15 14 12 13 13

GFSSGP_925_spd_165.txt.gz
Wind_Speed
29 14 2 5 4 5 1 1 1 2 2 3 2 7 7 3 2 2 4 15 6 16 15 14 12 10 8 7 7 7 8 7 7 7 10 9 7 6 6 5 7 7 7 7 7 6 6 6 7
23 5 3 3 5 4 3 2 6 3 6 7 6 4 5 2 2 4 7 14 16 14 15 13 12 10 8 7 7 7 8 7 7 7 8 7 6 6 7 8 7 6 7 6 5 4 3 3 5
10 4 3 4 3 4 5 3 5 5 8 3 4 5 3 3 1 13 5 18 16 13 13 12 11 10 9 7 6 6 6 7 6 5 6 6 6 5 5 6 5 5 4 3 2 2 2 3 3
8 6 4 4 2 3 5 7 4 7 2 4 4 5 2 1 5 8 16 18 16 14 13 11 10 9 9 7 6 6 5 6 7 5 5 6 5 4 3 3 2 1 3 3 2 2 4 4 2
6 3 4 4 1 1 2 6 8 7 5 3 1 3 2 2 5 13 16 17 15 14 12 10 9 9 9 8 7 6 5 4 6 7 7 6 6 7 5 3 1 1 2 2 3 1 2 1 2
4 3 4 2 0 2 2 2 5 3 3 5 5 4 3 4 12 14 15 17 14 12 13 11 10 10 9 9 7 6 6 5 5 7 8 8 7 6 6 5 4 2 2 4 3 3 3 5 6
5 3 5 5 3 1 4 6 5 6 6 3 8 4 2 4 11 15 14 15 15 13 13 12 10 11 10 10 9 7 7 6 5 7 8 9 8 6 7 7 7 6 5 5 5 5 5 7 7
4 4 4 3 6 6 5 5 6 5 3 3 2 5 4 7 14 15 12 14 15 14 13 11 10 10 11 10 9 8 7 7 6 7 9 10 9 9 8 8 9 9 9 8 7 7 8 8 8
3 4 1 4 6 4 6 5 4 1 6 3 2 6 4 17 16 13 11 14 14 15 15 13 12 10 9 9 8 8 7 8 8 8 8 9 11 10 10 10 9 9 10 11 11 11 11 11 11
4 4 7 3 2 2 3 5 10 6 5 2 3 3 14 22 17 15 15 14 16 17 17 15 14 13 12 11 9 9 7 7 8 9 10 10 10 10 11 12 11 11 10 11 13 13 14 14 15
2 4 3 1 1 2 3 2 2 8 3 6 11 9 10 13 16 16 18 18 20 19 17 17 17 16 16 14 12 12 12 10 11 10 9 9 9 8 8 9 11 12 12 14 15 15 15 15 16
2 1 1 2 4 2 4 1 2 1 4 7 10 12 9 8 12 16 15 17 18 20 21 19 19 19 19 17 17 16 15 13 12 11 11 11 11 11 12 12 12 12 12 13 13 13 13 14 14
2 2 2 2 5 3 1 3 2 2 4 2 10 9 9 9 12 15 16 14 12 11 12 14 18 23 21 21 19 19 19 17 14 13 10 12 13 13 13 14 14 14 14 14 14 15 14 14 14
1 1 2 3 2 4 2 1 4 1 2 6 7 9 9 9 14 10 12 12 11 8 8 8 8 11 21 23 22 21 21 21 19 16 15 14 12 14 14 15 17 17 16 16 16 16 16 17 16
3 2 4 2 1 1 0 5 5 2 6 1 4 6 6 9 6 7 6 5 5 6 8 9 8 7 9 18 21 21 21 22 22 20 17 15 14 12 15 15 17 18 18 18 18 18 19 19 19
4 4 1 2 2 1 4 6 4 4 3 7 6 6 5 3 2 1 3 6 8 10 9 8 6 5 5 7 14 17 17 18 21 22 18 17 17 16 15 15 15 15 16 17 18 18 19 21 22
4 3 4 6 5 2 3 5 4 2 6 5 5 8 6 4 6 9 10 10 8 7 5 4 4 5 6 7 8 7 8 10 11 14 18 17 15 17 17 15 14 14 14 13 13 14 13 17 17
6 4 4 5 3 4 4 9 7 6 4 7 7 5 8 6 3 8 9 8 6 5 2 2 4 6 9 10 9 6 7 6 7 6 7 10 11 12 14 15 14 13 12 11 13 15 14 15 16
5 3 4 3 4 4 6 8 9 9 6 8 8 7 7 5 6 7 7 6 5 4 2 3 5 7 8 5 2 3 4 6 7 6 6 5 3 4 5 7 8 8 9 8 10 10 11 12 9
1 3 4 1 1 5 3 10 10 9 7 9 11 9 9 6 6 7 7 6 6 5 5 5 6 6 6 3 4 3 9 8 10 9 8 7 4 3 2 2 1 1 2 4 5 5 5 4 5
2 3 2 0 3 2 5 7 6 6 6 7 7 8 7 12 10 6 7 6 6 7 7 7 6 5 5 5 7 9 10 11 8 8 6 6 4 3 2 1 2 3 4 5 5 6 6 6 4
4 6 4 3 3 3 2 5 6 4 7 5 5 7 8 9 7 7 10 7 6 6 5 5 5 6 7 6 9 10 8 6 4 5 5 4 3 2 4 4 3 2 1 1 2 3 3 4 4
5 5 5 2 1 2 1 1 7 4 6 6 1 4 5 7 9 8 9 8 6 5 4 5 6 8 8 6 5 6 8 7 8 5 3 3 3 3 2 2 2 2 3 4 3 3 3 2 1
6 6 6 4 2 3 7 7 5 4 4 1 3 5 6 7 7 9 9 8 7 5 4 5 6 8 6 5 5 6 8 9 8 6 3 2 2 3 3 3 3 3 4 4 5 5 5 5 6
4 6 1 2 2 6 1 2 7 7 5 4 8 9 7 6 7 6 7 7 5 4 3 3 4 6 4 4 5 4 6 7 6 6 5 4 4 4 4 3 3 4 5 5 5 6 7 7 8
5 6 5 7 4 4 3 6 5 2 5 5 8 8 7 6 5 6 7 7 6 4 2 2 2 2 2 3 4 5 5 6 7 7 6 6 5 4 4 4 4 5 5 5 5 7 9 9 10
5 6 5 5 2 2 3 6 9 2 6 7 7 7 6 6 7 7 8 8 7 7 5 2 4 2 1 2 2 3 4 4 5 6 5 5 5 5 5 4 5 5 6 6 7 9 11 10 11
5 7 2 2 1 4 3 5 4 2 3 4 5 6 6 5 6 5 7 9 9 8 8 8 6 5 3 2 3 3 3 4 4 5 5 5 6 6 5 5 5 5 6 7 8 10 10 9 11
4 4 3 5 4 4 1 5 5 4 2 8 7 7 6 6 5 4 10 12 13 13 12 11 9 8 7 7 6 5 5 4 4 5 6 6 7 6 6 6 6 6 7 8 9 10 10 11 11
4 5 5 4 4 3 2 5 3 5 4 6 6 5 4 6 7 7 12 14 17 19 16 15 12 11 10 9 8 6 5 5 5 6 7 7 7 7 7 7 8 8 9 9 9 10 10 11 11

GFSSGP_925_spd_168.txt.gz
Wind_Speed
24 7 4 5 4 5 1 2 0 3 1 1 3 3 5 3 3 3 4 15 8 16 16 13 9 8 6 6 7 8 8 6 5 6 7 7 7 7 7 7 8 8 8 8 7 6 6 7 8
18 4 4 3 5 3 3 3 5 3 5 6 5 3 4 2 1 2 6 16 10 15 15 13 11 8 6 6 6 7 7 6 5 8 7 6 6 7 8 8 8 6 7 7 7 6 4 6 6
9 4 4 4 4 4 4 3 4 4 5 1 4 4 1 1 1 8 2 15 16 14 13 12 11 8 7 5 5 6 6 6 5 4 5 5 5 5 6 7 6 3 5 6 4 5 3 3 4
5 5 4 4 3 1 4 6 5 7 3 3 3 5 2 1 4 5 13 16 15 13 13 11 10 9 7 6 5 5 4 5 4 3 3 4 2 1 2 3 2 2 4 5 4 4 5 2 2
5 3 4 4 1 1 2 5 7 6 4 2 1 3 1 2 2 9 18 15 14 13 12 10 9 9 8 6 5 4 3 3 4 5 4 3 3 4 2 1 1 2 3 5 5 2 1 0 2
4 3 4 3 2 0 3 6 7 4 4 4 4 5 2 1 9 13 15 15 11 10 11 9 8 8 7 7 5 4 3 3 3 5 4 5 4 3 4 3 2 2 3 5 4 5 3 4 5
5 4 4 5 4 3 5 8 6 6 7 5 9 5 2 2 7 11 12 12 10 9 9 8 8 8 8 7 7 5 5 4 3 4 5 6 5 5 5 5 6 5 5 5 6 6 6 7 7
4 4 3 1 4 4 5 5 5 6 4 3 4 5 4 6 11 11 10 11 11 9 9 8 7 8 9 8 8 7 6 5 5 4 6 7 7 7 6 6 7 8 8 8 8 8 9 9 9
2 4 2 4 5 3 2 3 0 1 6 1 5 5 5 21 17 14 10 11 12 11 11 10 9 8 8 8 8 8 8 7 7 7 7 7 8 8 8 8 8 8 8 9 10 11 11 11 12
4 3 7 4 3 2 2 2 7 4 4 0 1 1 9 23 21 17 12 12 13 13 13 12 11 11 9 9 8 8 8 7 7 7 8 8 8 8 8 10 11 9 9 10 10 12 13 13 14
2 4 3 1 1 2 2 1 2 7 3 7 11 7 9 15 19 17 15 14 15 13 12 14 13 13 13 12 11 10 11 10 9 9 9 8 7 8 7 8 8 9 10 10 11 12 13 13 13
2 1 1 2 3 3 2 3 3 4 4 5 8 8 9 8 14 18 17 17 15 14 15 15 16 16 16 16 16 14 13 14 13 11 9 9 9 10 9 11 10 10 10 11 11 12 12 12 12
2 2 2 2 4 3 2 2 2 4 4 3 8 6 8 8 13 17 16 15 14 15 16 17 18 19 20 20 19 18 18 17 16 15 12 10 10 10 10 12 12 13 13 13 13 12 12 12 12
2 2 1 2 1 2 1 1 1 1 3 6 7 7 5 6 13 11 11 12 11 10 8 8 9 11 17 21 21 21 20 19 18 19 17 15 12 10 12 14 14 15 15 16 16 14 15 15 15
2 2 3 2 1 0 1 3 5 3 4 6 5 3 4 5 6 3 3 5 7 9 9 8 9 9 9 13 18 20 21 20 21 21 19 18 16 14 14 14 14 15 15 16 17 17 17 17 17
4 4 2 2 2 1 3 7 1 1 3 4 3 4 5 0 2 2 3 6 7 8 8 7 6 4 4 4 7 12 15 17 18 19 19 19 18 18 18 16 15 14 15 14 15 15 17 18 17
4 4 4 6 5 2 3 5 5 4 5 7 7 6 6 3 2 3 4 6 7 7 6 4 3 4 4 5 6 7 8 9 10 12 15 18 18 18 17 16 15 14 14 14 16 14 14 18 17
5 3 2 3 1 1 1 9 7 4 2 6 5 5 6 6 5 5 5 6 7 6 3 2 3 5 7 7 7 7 6 5 5 5 5 6 10 10 10 13 14 12 12 12 14 13 13 15 15
6 4 3 3 3 2 6 7 10 9 4 8 8 8 7 8 7 7 5 5 6 5 2 1 4 6 8 5 2 3 1 2 3 3 3 2 2 2 3 7 8 8 8 7 8 10 12 10 8
3 3 2 1 2 3 5 10 11 8 7 9 11 9 9 6 6 8 7 6 5 4 4 4 5 6 5 2 4 2 3 3 4 5 5 4 2 2 1 2 3 4 4 5 7 8 8 4 7
3 5 3 2 4 2 6 7 6 5 5 5 8 9 7 12 12 8 9 6 5 5 5 6 6 6 6 3 6 7 6 7 5 3 3 4 3 4 4 3 4 5 7 8 9 9 8 7 5
3 5 3 2 3 3 3 5 6 5 8 6 6 6 7 8 6 7 11 8 6 6 5 5 6 7 6 5 6 8 5 6 4 3 2 3 3 4 6 6 6 5 4 4 4 5 5 4 3
6 4 6 2 3 2 1 2 7 3 7 7 2 2 2 5 9 9 11 10 8 6 5 6 6 6 6 4 4 6 5 4 5 3 1 3 4 5 5 5 4 3 3 4 4 4 4 4 2
7 6 7 4 3 2 6 6 4 4 4 4 1 2 5 7 7 9 9 9 7 6 5 4 5 6 6 5 5 5 4 5 4 2 1 2 3 4 4 4 4 4 3 4 5 5 4 5 5
3 6 3 3 1 5 2 3 8 8 6 4 4 4 5 6 7 6 7 7 5 4 3 3 2 4 6 7 7 5 3 2 2 1 1 2 2 3 4 4 3 3 4 4 4 5 6 7 7
4 5 5 6 4 4 2 5 5 3 4 5 5 8 6 5 5 6 6 5 4 4 3 2 2 3 5 5 6 5 4 3 2 1 1 2 2 3 3 3 4 4 5 4 4 5 7 8 9
5 4 4 5 2 2 4 6 8 2 5 5 7 7 6 6 5 5 5 6 7 7 5 3 2 1 2 3 3 4 3 2 2 2 0 1 2 1 2 3 4 4 4 5 5 7 9 8 10
5 8 2 2 2 4 4 5 5 3 1 2 5 6 6 3 4 5 8 8 8 8 7 6 5 3 1 0 1 2 1 1 0 1 1 1 2 1 2 3 4 4 5 5 6 7 8 9 11
4 3 3 4 4 4 1 5 5 2 4 6 7 6 6 6 6 6 8 9 10 10 10 8 7 5 4 3 2 1 1 1 1 1 1 2 2 2 3 4 5 5 6 7 7 9 9 10 11
1 5 5 4 4 3 2 5 3 4 2 7 8 7 4 5 5 6 9 8 10 11 11 11 10 9 7 6 5 4 4 3 2 2 2 3 3 3 3 5 6 7 7 7 8 10 10 11 11

GFSSGP_925_spd_171.txt.gz
Wind_Speed
16 4 6 4 4 4 1 2 0 3 2 0 3 4 4 3 1 2 3 10 10 17 16 13 9 9 8 8 9 9 8 7 6 7 7 8 8 8 8 9 11 10 10 9 8 7 9 10 11
11 1 4 3 4 3 2 2 5 3 4 6 4 3 3 2 1 3 8 9 13 16 16 14 10 8 8 8 8 8 7 7 7 10 7 6 8 9 9 8 9 9 10 8 7 6 6 8 8
5 3 3 4 3 3 4 4 5 3 5 3 3 3 3 2 1 7 4 14 16 15 14 13 10 8 7 7 7 8 7 7 6 5 5 5 7 8 8 8 6 7 7 7 7 6 6 5 5
3 5 4 4 3 3 3 5 5 7 3 1 4 5 1 0 4 5 12 16 16 14 13 11 9 7 6 5 6 6 6 6 5 5 5 5 2 3 4 5 5 6 8 7 6 8 6 4 3
6 3 4 4 1 2 2 4 9 6 4 2 2 4 3 1 2 7 17 16 14 14 13 11 9 7 6 5 4 4 4 4 5 5 4 4 4 2 1 2 3 5 6 7 7 4 2 2 4
4 3 4 3 3 1 0 4 6 3 3 3 4 6 3 3 9 14 16 14 12 12 12 10 8 7 6 5 4 3 3 2 2 5 3 4 3 4 2 1 1 2 4 5 5 5 4 5 5
5 3 4 4 5 2 5 7 6 5 5 4 6 5 1 6 11 16 14 13 11 10 10 9 8 8 7 6 5 4 3 2 2 3 4 6 4 3 3 3 3 3 3 4 4 5 6 6 6
4 4 4 3 4 4 4 6 3 5 5 1 2 4 4 8 17 16 14 13 10 9 9 9 7 7 7 7 6 5 5 4 3 3 4 5 5 5 4 4 4 4 5 6 6 6 6 7 8
3 4 3 6 6 3 4 4 1 2 5 1 3 3 2 24 23 20 16 13 11 10 9 9 8 7 7 7 7 6 6 6 6 5 4 5 5 6 6 5 6 5 5 5 6 7 8 9 10
4 4 7 3 3 2 3 2 7 4 3 3 2 1 7 22 24 23 18 16 15 13 12 10 9 8 7 7 6 5 6 6 6 5 5 6 6 6 6 6 6 8 7 8 8 8 9 10 11
2 4 5 2 2 2 2 3 5 7 3 6 9 6 11 13 18 18 18 18 17 12 12 11 10 9 9 9 8 7 7 7 6 5 5 5 4 4 4 5 7 6 6 7 7 8 9 9 10
3 3 4 3 1 4 3 3 4 5 5 1 6 7 10 10 14 18 17 16 14 12 10 10 11 12 12 12 12 11 10 10 10 9 8 8 7 5 7 7 7 7 8 9 9 9 9 10 9
2 3 4 3 2 3 3 2 3 6 3 5 5 10 12 11 13 16 13 12 10 10 9 10 13 13 14 16 16 15 15 13 12 12 11 10 9 7 6 9 9 10 11 12 11 11 11 10 11
2 3 3 2 2 1 4 3 3 2 2 1 6 7 6 8 11 9 8 9 10 10 7 5 6 10 13 15 17 17 17 16 15 13 12 13 13 11 10 9 10 11 11 13 14 15 14 14 14
3 2 2 3 3 2 1 3 6 4 2 5 6 6 6 7 8 5 4 5 6 8 8 7 7 6 6 8 11 14 15 16 17 17 17 16 15 15 14 13 13 13 12 12 15 16 16 16 15
4 4 2 2 3 1 4 8 4 5 6 6 6 5 5 4 6 5 5 6 6 7 8 7 6 5 4 4 4 5 9 12 14 15 16 16 16 17 19 19 17 15 15 13 14 14 15 16 13
5 4 4 6 2 1 3 7 3 1 4 6 6 5 4 4 3 5 6 8 7 7 6 5 3 3 3 3 4 4 4 5 7 8 8 10 12 15 14 16 17 14 13 11 11 12 12 15 14
6 3 2 3 3 3 1 9 5 2 2 5 5 4 4 6 5 7 7 8 8 7 5 3 2 2 3 3 4 4 4 4 3 3 3 4 5 7 8 8 9 8 9 10 10 10 9 11 12
7 4 2 2 2 1 4 7 13 6 5 7 8 7 7 7 7 10 9 9 9 7 5 3 0 2 2 1 1 2 1 1 2 3 1 1 2 1 1 2 4 6 5 5 6 7 6 5 9
4 4 2 2 2 3 3 11 12 7 7 9 12 12 11 5 6 10 8 6 6 5 5 3 3 4 4 2 4 3 3 2 2 3 3 4 3 4 4 4 4 4 3 5 8 10 7 6 7
2 5 3 3 2 1 5 7 5 3 4 6 6 7 7 12 11 8 12 8 6 5 5 6 6 5 4 4 5 7 7 6 5 4 4 4 5 4 5 5 6 7 8 8 8 8 7 4 4
4 5 5 2 2 3 3 5 6 4 7 4 7 4 6 8 6 8 12 10 7 6 6 7 7 7 7 6 5 5 1 3 2 2 4 3 4 5 5 7 7 7 6 5 6 6 6 3 3
5 5 5 2 3 3 2 1 7 4 5 3 6 4 4 4 7 10 12 13 9 6 6 7 8 8 8 6 5 4 3 4 4 2 1 3 6 7 7 7 6 5 5 6 6 7 7 7 4
8 6 6 4 2 2 4 4 5 3 2 4 2 1 3 4 7 11 12 11 10 8 7 7 7 9 9 8 7 5 5 5 3 1 2 3 5 6 6 6 5 6 6 7 8 8 8 9 9
2 5 3 3 2 5 1 2 9 7 5 4 7 3 4 5 6 7 9 11 9 8 7 6 7 9 8 8 7 6 5 4 2 1 1 2 3 5 5 6 5 6 7 7 7 8 9 10 10
4 5 4 6 3 3 1 5 5 2 2 4 4 6 6 5 4 5 8 9 9 9 7 6 6 7 7 6 7 6 5 4 4 3 3 3 3 4 5 5 5 6 6 6 7 8 10 10 11
6 4 4 6 2 2 3 6 8 2 3 5 4 6 6 5 5 5 6 7 8 7 6 6 5 5 4 4 4 4 4 3 3 2 2 2 2 3 4 4 5 6 6 6 7 9 11 11 12
4 7 3 2 1 4 4 4 5 2 2 2 4 5 5 4 5 5 9 8 7 7 6 5 5 4 3 2 2 2 2 2 1 1 2 2 2 2 3 3 4 5 5 6 7 10 10 10 12
4 3 3 4 3 4 1 5 5 4 4 6 7 6 6 6 6 6 8 7 8 9 10 9 9 7 6 5 3 2 2 1 1 1 1 1 1 1 2 4 4 5 7 8 8 10 10 11 12
2 6 5 4 4 3 2 5 2 6 6 6 6 5 5 6 6 4 6 7 10 11 13 13 12 11 10 8 6 5 4 3 2 2 2 2 3 3 4 5 6 7 7 7 8 10 11 11 11

GFSSGP_925_spd_174.txt.gz
Wind_Speed
7 6 6 4 4 2 4 5 2 7 6 2 4 1 2 4 3 3 7 6 12 15 14 12 10 9 9 10 10 10 8 8 8 8 9 8 9 9 9 11 10 10 9 8 6 7 8 9 10
3 4 3 1 3 4 5 5 8 5 5 9 8 5 2 4 2 8 10 6 14 15 13 12 8 9 9 9 9 9 8 8 7 9 7 8 9 10 8 9 10 8 7 6 5 6 6 7 8
2 3 3 3 3 3 6 8 10 11 9 4 4 1 2 4 5 11 6 11 14 13 12 12 10 9 9 9 9 9 9 8 9 7 6 8 8 8 9 6 5 6 7 6 6 6 5 5 5
2 4 3 5 6 3 4 12 11 13 3 3 3 7 4 3 6 4 14 13 13 12 11 12 10 9 8 8 8 8 8 7 6 5 7 4 4 4 4 5 5 6 7 7 7 8 5 4 4
2 2 3 4 4 3 3 11 14 11 7 7 4 6 6 4 5 9 15 13 12 12 10 10 10 8 8 7 7 6 6 6 6 6 6 5 4 1 1 2 3 4 6 6 6 3 2 1 4
1 2 6 8 5 4 3 9 12 7 6 6 5 9 5 4 11 14 14 12 11 11 10 9 10 9 7 6 6 5 5 4 4 5 5 4 4 4 2 1 0 2 3 4 4 4 3 4 4
2 2 4 5 8 6 5 10 13 8 7 6 5 7 5 8 12 17 14 12 10 9 8 7 8 8 8 7 6 5 4 3 3 5 5 8 5 5 4 3 3 2 3 3 3 3 4 5 5
2 1 5 4 9 5 8 10 6 8 7 3 4 4 6 14 16 17 16 13 10 9 8 7 6 7 6 6 6 6 5 4 4 4 5 6 5 5 4 3 4 5 5 6 6 6 6 6 7
1 3 5 6 8 6 9 10 3 2 6 3 5 1 3 20 18 16 16 14 12 10 10 9 8 7 6 6 6 6 6 5 5 4 4 4 4 4 5 5 5 6 6 6 5 6 7 8 9
1 2 5 2 3 5 10 8 10 6 7 6 6 4 11 20 19 19 17 16 15 14 12 10 9 8 7 6 6 5 5 5 5 5 4 4 4 4 4 5 4 6 7 7 7 7 7 8 7
2 2 5 3 2 2 8 7 6 7 9 11 13 12 17 20 19 17 15 14 14 13 11 12 10 9 8 7 6 5 5 5 5 5 4 3 3 3 2 4 4 4 5 5 6 8 8 9 8
3 2 2 5 2 3 4 5 6 12 6 1 5 12 18 18 20 18 15 12 11 10 9 9 10 9 9 8 7 6 6 6 6 6 6 4 4 4 5 6 7 7 8 8 9 9 8 8 9
2 4 2 2 2 2 2 4 6 9 8 1 5 10 16 17 18 16 12 10 9 7 6 6 8 9 9 10 9 9 8 8 7 7 8 8 9 8 6 7 8 9 9 11 13 13 13 13 13
3 4 4 2 1 0 3 2 2 4 6 6 7 13 15 17 19 15 14 13 10 7 4 4 6 9 9 10 9 9 9 9 9 10 10 12 13 14 12 12 11 10 12 11 13 14 16 17 16
4 4 2 5 3 2 2 4 9 4 5 8 8 10 11 14 16 15 12 11 9 7 8 6 5 5 4 4 6 6 7 8 9 9 12 14 16 17 17 15 14 13 15 15 15 14 14 17 15
3 1 4 2 4 2 4 11 8 3 5 8 8 9 11 11 12 9 7 7 6 8 9 9 8 6 4 3 2 2 3 3 5 8 9 12 12 10 12 14 14 14 14 11 12 11 11 11 11
1 5 8 2 1 1 7 7 2 1 4 8 8 10 10 10 10 9 6 6 6 7 7 8 7 6 5 4 3 3 3 2 3 5 6 6 8 10 10 11 13 11 11 6 8 9 10 10 11
8 6 3 5 2 3 6 16 5 1 4 8 10 9 11 12 12 9 7 6 7 6 6 6 5 3 3 3 3 2 1 0 1 2 3 3 5 6 6 6 5 4 5 6 6 6 8 7 7
6 5 6 2 1 3 8 14 14 10 10 11 11 11 11 12 10 8 7 6 6 5 5 4 3 2 2 2 2 2 2 2 2 3 2 1 2 2 2 3 3 4 3 3 5 6 5 5 7
5 5 3 1 1 3 5 15 17 13 13 15 17 15 14 12 10 10 8 6 6 6 5 4 2 1 1 3 3 3 3 4 3 3 3 3 4 4 4 5 6 6 5 6 7 7 6 5 6
4 7 3 2 1 1 7 10 7 4 8 10 12 14 16 16 14 13 13 10 7 5 5 5 4 3 3 5 5 6 6 6 4 3 3 5 5 5 5 6 6 6 6 6 6 6 5 3 2
9 7 6 5 3 4 3 5 4 3 6 6 6 7 11 13 13 13 15 13 10 7 5 6 6 5 5 6 4 4 3 4 3 2 2 4 5 5 5 5 6 5 5 5 5 5 4 3 2
2 8 6 2 3 3 4 4 5 3 4 3 4 2 2 4 9 11 14 13 10 9 8 8 7 6 7 6 6 4 5 5 4 3 2 4 5 6 7 6 6 5 6 5 5 5 6 5 3
13 9 6 3 2 4 4 6 5 4 1 1 4 3 1 1 5 12 12 11 9 7 8 8 8 8 7 7 7 6 5 5 4 2 2 3 4 6 6 6 6 5 5 5 5 6 7 7 7
4 10 2 4 4 3 3 5 9 5 6 7 9 3 1 4 9 11 13 11 9 8 7 7 7 8 8 7 7 7 6 5 4 2 1 2 2 4 5 5 5 5 5 6 6 7 8 8 8
7 5 3 5 4 2 2 6 3 1 2 4 3 3 4 6 7 8 10 11 11 10 9 9 9 9 8 8 8 7 6 5 4 3 2 2 2 2 3 4 4 4 4 5 5 6 7 8 10
7 8 2 5 1 2 4 4 9 2 1 0 2 4 6 6 6 8 10 10 10 10 9 9 9 9 8 7 7 6 5 4 4 3 2 2 1 1 2 2 3 3 4 4 5 6 7 8 9
5 12 4 1 4 5 3 4 6 2 2 3 5 6 7 7 7 7 9 10 10 10 9 9 9 8 7 6 4 4 3 3 3 2 2 2 2 2 2 2 3 4 4 5 5 6 7 8 9
5 5 1 3 1 2 2 3 2 4 3 3 7 8 9 9 9 8 8 8 9 10 11 11 9 8 7 6 5 5 4 3 2 2 2 2 1 2 2 2 3 3 4 4 5 6 7 8 9
4 7 7 5 5 3 1 4 4 4 5 6 7 8 8 7 8 8 10 11 12 13 12 11 10 10 9 9 8 7 5 4 3 3 3 3 2 1 2 2 2 3 3 3 4 6 7 8 9